Theta_e
345 344 341 339 333 326 326 327 323 320 320 327 338 344 346 346 346 345 345 343 339 339 341 342 339 337 337 337 336 334 334 336 335 333 333 331 330 330 331 330 330 331 331
346 345 343 341 339 336 334 334 329 324 321 336 339 343 347 347 347 347 346 345 344 343 344 343 341 339 337 338 338 335 334 334 335 334 334 331 328 330 331 331 330 330 331
341 343 343 341 342 339 337 338 338 332 324 334 341 341 345 346 348 348 347 347 347 346 345 344 343 342 340 338 339 338 334 333 334 334 335 335 330 328 331 331 331 330 329
335 340 341 341 341 340 338 340 341 337 333 334 338 342 344 347 348 348 346 346 347 346 345 345 344 343 341 340 339 339 337 334 334 335 335 335 334 330 329 331 331 331 331
339 340 339 338 342 341 340 342 342 341 339 339 340 341 341 345 346 347 346 347 347 346 345 346 344 344 343 341 340 339 339 337 334 334 334 335 335 333 332 330 331 331 331
340 340 340 341 341 342 342 342 343 343 343 342 341 340 339 344 342 337 341 345 347 346 344 343 344 344 343 342 341 340 340 339 337 334 333 335 336 335 334 333 332 331 332
342 342 342 344 344 342 342 342 340 341 342 341 340 341 341 339 337 336 341 346 347 345 342 344 343 344 344 343 343 342 341 341 340 338 334 334 336 337 336 336 335 334 332
349 347 345 345 346 346 344 343 343 342 342 341 340 339 337 339 340 341 343 344 343 343 342 341 343 345 344 345 345 343 342 342 342 341 339 336 335 337 338 338 337 336 336
345 346 346 346 344 343 342 343 343 343 343 343 342 340 338 340 335 339 343 342 343 343 339 337 346 344 343 343 343 343 342 340 340 342 341 341 339 336 337 338 338 338 338
333 340 344 344 342 336 331 337 343 343 342 344 342 342 340 337 336 335 341 343 344 344 339 338 346 341 344 344 344 342 337 333 332 339 339 340 341 339 339 338 338 338 337
332 332 335 341 340 334 335 337 336 340 341 341 342 341 341 340 340 334 336 337 342 342 339 341 344 342 341 342 342 339 336 335 336 333 333 333 336 336 341 340 339 339 338
330 332 334 336 338 336 332 328 331 334 339 340 340 341 340 332 327 325 326 330 332 334 342 342 342 340 340 338 337 338 338 336 333 333 331 335 329 335 340 340 341 341 341
331 333 333 334 333 335 338 337 330 333 336 336 328 337 337 336 330 324 323 325 326 324 328 340 339 336 335 334 331 330 330 328 336 333 336 337 334 336 333 334 335 336 338
323 328 334 334 334 335 335 335 337 334 338 338 333 327 335 334 323 321 326 323 324 328 324 330 336 335 334 329 329 333 327 336 335 334 333 332 333 329 331 331 331 335 335
318 321 325 327 330 332 334 336 336 336 338 337 329 330 332 328 325 326 327 324 325 325 324 327 332 332 330 332 330 328 329 328 330 333 333 330 330 327 327 328 330 333 336
318 318 318 320 325 328 333 334 337 338 336 333 330 327 327 326 327 324 324 323 323 323 328 328 330 330 330 330 329 327 327 331 332 332 332 329 329 329 328 331 332 333 334
318 318 317 318 322 322 327 332 334 336 335 332 328 328 327 327 325 324 322 325 328 324 323 326 331 331 330 328 326 326 329 330 331 331 330 331 334 332 332 334 333 333 332
315 314 314 316 320 319 319 323 329 332 330 328 326 326 326 325 324 323 323 328 330 331 329 327 329 328 328 326 323 323 323 328 332 332 333 332 329 330 331 332 331 331 333
312 312 314 314 313 315 319 321 325 328 328 325 325 325 326 325 324 322 323 326 332 331 330 329 326 325 324 323 325 325 331 332 332 333 334 332 328 328 329 331 330 329 332
312 312 312 312 312 314 320 319 322 326 328 327 326 325 324 323 322 322 323 326 330 331 329 328 327 324 325 328 329 328 327 328 329 329 329 329 330 331 329 327 328 331 333
313 312 313 313 314 316 318 319 321 323 325 327 325 323 325 322 321 321 325 327 329 330 327 326 325 323 322 321 318 320 322 323 321 319 322 328 330 330 328 328 326 331 334
309 309 309 309 309 310 316 318 319 320 323 323 324 324 323 322 321 321 323 328 330 329 327 325 320 315 316 316 318 320 323 326 319 329 327 324 324 325 330 328 326 331 333
308 308 308 308 307 308 309 313 317 316 319 321 321 321 322 325 324 324 322 328 329 328 328 326 320 314 314 316 317 320 321 321 322 319 323 324 318 328 327 325 331 332 333
307 307 307 307 307 307 307 308 315 317 316 318 315 319 320 323 324 327 327 329 328 324 321 315 313 314 315 315 317 319 317 319 322 325 327 326 329 328 324 327 331 332 332
306 306 306 306 306 309 310 311 314 316 316 316 318 319 319 322 323 326 326 323 320 317 314 314 317 317 317 317 318 318 317 318 320 324 326 329 329 326 324 329 331 330 331
305 305 305 305 305 307 307 311 315 316 316 317 318 317 321 322 322 323 323 321 314 313 317 319 319 319 319 318 319 319 318 318 321 322 329 327 327 326 322 328 327 327 330
Wind_Speed
31 29 28 28 30 29 28 26 26 24 22 20 19 19 17 16 17 15 13 10 13 16 15 13 14 15 14 14 15 14 15 19 18 15 14 14 14 14 12 12 12 13 14
34 34 33 33 32 31 30 28 30 27 26 23 23 22 20 19 19 17 16 14 16 18 18 17 16 17 17 17 16 16 17 19 21 18 16 15 16 17 15 14 14 14 15
36 35 36 37 37 35 32 28 28 29 30 29 27 26 22 23 23 20 19 20 21 22 21 21 21 20 19 19 19 18 18 19 23 22 18 18 17 16 18 18 16 16 17
35 37 37 39 36 35 32 31 30 28 30 30 30 29 27 25 24 25 26 27 25 25 24 25 25 24 24 22 21 21 22 19 22 25 22 20 17 15 18 20 20 19 18
33 36 36 39 39 35 34 33 32 30 30 33 32 32 29 28 27 26 29 28 25 25 25 25 24 26 26 26 25 22 23 23 23 27 25 23 19 17 18 18 19 20 20
36 37 38 40 39 34 36 35 28 27 28 34 36 35 32 29 27 30 29 31 29 27 25 25 25 27 26 26 27 26 25 27 27 26 26 25 22 20 19 18 18 20 22
38 39 40 36 39 37 38 34 37 36 36 30 19 24 29 30 31 31 32 29 29 29 26 25 25 26 27 26 25 26 27 28 30 27 27 27 25 23 22 21 20 19 22
35 34 36 36 26 27 27 33 37 33 28 29 21 7 4 15 29 34 34 33 34 32 29 26 24 23 22 22 21 22 21 22 24 26 28 29 28 27 26 24 22 22 22
28 34 32 32 33 24 20 33 34 35 31 34 33 16 2 8 1 28 36 38 37 34 29 23 21 19 19 22 22 17 16 18 18 25 22 26 30 32 32 27 23 23 22
18 19 32 38 34 35 39 32 39 41 36 33 24 38 33 2 3 3 14 29 36 38 32 25 21 20 16 19 19 16 18 26 27 26 26 32 28 26 37 33 24 23 22
17 14 20 22 30 35 40 39 40 40 36 38 29 26 27 24 22 7 4 5 13 31 36 29 23 21 20 15 17 19 19 23 26 27 28 42 44 42 29 36 25 24 23
20 16 15 20 22 33 39 43 37 34 33 29 28 30 25 6 6 6 6 16 10 27 26 27 23 22 17 14 17 15 15 16 18 20 26 25 36 45 29 24 20 21 23
23 21 18 18 18 23 30 39 47 40 33 35 36 32 33 32 19 12 17 12 9 21 37 26 22 19 19 18 20 18 13 15 14 16 15 5 20 22 21 19 19 21 23
20 21 19 17 16 18 24 26 38 41 43 35 43 37 35 33 25 17 15 11 3 2 17 35 20 19 19 19 21 14 12 16 14 12 10 14 25 26 26 22 22 24 24
20 22 22 23 21 21 22 25 30 32 36 38 39 41 36 31 26 23 30 32 15 7 10 35 13 19 20 16 19 15 17 21 21 16 16 18 25 28 22 22 25 24 25
19 21 23 24 24 24 23 23 25 31 33 35 36 35 35 34 26 23 26 29 30 22 11 25 27 20 20 19 17 19 21 15 19 16 17 19 25 23 21 19 20 23 27
15 15 19 22 23 23 23 21 24 28 32 33 30 32 33 32 33 30 25 25 27 25 14 31 20 21 18 18 16 17 10 13 16 14 17 19 18 21 19 21 22 24 24
16 17 18 19 22 25 26 25 24 27 31 30 31 32 36 35 35 35 30 26 24 28 24 7 18 21 18 16 17 22 17 19 20 20 21 17 19 19 20 21 19 21 22
19 20 18 18 22 26 26 24 27 28 28 30 31 34 39 34 35 27 36 25 25 25 19 14 13 11 10 8 10 11 15 13 15 14 12 15 18 16 17 22 21 19 20
23 21 22 22 23 24 24 25 25 27 26 27 30 31 34 30 34 32 26 23 25 21 16 12 8 7 5 5 8 5 1 4 6 8 12 15 17 17 14 19 21 19 16
16 14 15 17 19 22 25 23 24 19 26 28 25 26 31 31 29 29 20 19 24 22 18 14 6 4 7 7 6 4 3 8 12 11 13 12 12 13 15 18 21 18 13
21 19 20 18 20 19 24 27 26 18 16 16 22 25 28 29 30 33 32 25 26 24 21 12 7 5 7 7 8 6 3 2 3 3 7 15 14 21 20 21 18 18 12
21 22 21 22 27 28 28 28 29 24 25 16 15 16 27 20 30 35 38 28 27 24 22 23 19 12 10 10 7 5 3 3 5 16 15 14 11 15 14 18 13 15 13
31 29 26 24 26 32 33 32 30 28 29 29 23 18 9 26 33 30 26 25 25 22 18 15 11 11 9 7 3 2 3 5 9 5 5 4 9 11 19 16 6 9 10
31 27 24 24 26 25 22 26 28 26 28 29 23 14 14 21 38 31 31 31 24 20 16 13 11 11 10 8 6 7 5 5 3 4 3 2 4 12 16 11 7 6 8
28 25 22 23 26 30 31 23 27 23 20 17 19 15 12 21 34 29 28 26 23 22 20 19 16 15 15 12 12 10 11 11 6 4 4 3 4 5 7 4 6 9 7
Wind_Direction
227 232 231 234 233 232 232 236 240 239 242 244 240 246 249 256 263 266 252 235 221 227 239 248 251 243 233 225 227 225 224 228 217 213 215 210 214 222 218 212 211 213 213
231 233 236 236 238 235 235 238 240 242 242 241 246 247 249 252 259 265 247 254 248 244 246 248 248 248 242 236 226 224 223 225 225 214 216 215 210 217 220 218 217 215 217
232 233 235 237 239 241 241 245 246 244 244 240 245 246 247 248 250 251 254 256 256 251 254 256 252 250 246 240 238 232 222 226 225 226 215 219 215 213 222 222 219 219 220
237 236 236 239 242 242 243 245 247 247 248 248 247 246 246 246 248 252 254 252 255 259 261 259 260 261 256 250 240 238 235 219 233 231 224 222 219 215 220 228 227 225 225
240 238 240 241 240 241 241 243 248 248 250 252 253 249 250 249 252 252 254 256 259 262 264 267 270 269 265 262 259 247 242 237 227 230 229 226 221 221 223 225 230 235 237
244 244 243 244 241 240 241 241 244 250 253 255 253 252 253 254 265 267 259 259 260 260 267 267 270 267 266 265 263 260 252 249 242 234 233 233 229 227 231 230 228 231 237
249 242 244 243 246 245 243 244 251 249 246 246 256 256 251 252 259 258 255 252 249 257 263 267 271 270 273 274 272 268 260 259 254 248 243 239 235 234 235 233 238 234 237
271 264 246 239 240 247 255 258 250 248 254 251 235 231 267 264 252 251 247 250 255 258 260 264 269 273 277 273 266 268 257 263 271 268 263 257 250 245 239 239 241 242 241
274 275 264 252 245 245 251 271 270 265 268 263 244 223 201 232 232 242 243 246 249 250 255 261 264 269 265 264 263 265 251 248 279 278 263 261 265 260 254 244 243 248 248
310 299 275 266 266 284 264 258 258 256 249 252 244 233 238 284 207 291 237 237 243 248 247 249 250 252 261 261 263 264 271 263 252 256 265 274 268 271 268 254 247 251 254
335 320 309 291 262 258 247 246 256 267 266 265 250 261 248 261 301 324 300 330 266 248 247 237 243 253 262 262 260 264 268 259 252 268 238 267 264 274 266 255 247 251 253
332 330 316 310 289 264 252 260 254 260 261 258 265 260 264 186 180 120 358 334 334 326 260 233 237 246 249 253 264 261 265 259 263 217 243 289 251 246 261 254 252 254 255
329 324 314 311 301 295 277 265 259 258 249 237 251 244 251 232 215 222 200 239 253 303 296 234 227 241 256 262 267 263 259 249 225 202 209 247 200 256 279 277 275 269 265
342 340 333 317 300 291 286 279 259 238 247 242 225 240 238 226 239 224 200 191 255 182 291 294 216 236 243 253 256 248 230 197 226 220 231 244 265 277 280 284 282 276 265
333 333 330 336 324 311 288 275 266 263 252 240 233 231 233 236 237 232 236 227 213 234 239 270 224 229 230 235 237 268 256 231 240 256 261 268 268 280 280 273 276 272 265
327 328 331 332 326 329 312 291 275 264 256 244 239 232 231 227 224 215 218 230 229 222 244 237 217 220 221 233 256 277 271 244 246 252 262 277 281 283 281 276 275 272 268
307 318 328 326 326 325 326 305 283 269 263 256 241 226 224 221 218 219 219 219 213 199 216 260 214 214 218 240 258 267 254 243 259 260 262 266 275 280 273 270 269 268 270
288 302 316 320 318 321 319 304 288 275 263 248 238 229 226 224 224 224 208 215 213 214 199 193 207 216 229 237 256 254 267 269 268 275 271 266 278 279 282 281 279 276 275
285 295 304 307 312 313 313 305 289 279 265 248 239 233 235 228 228 216 218 217 237 212 205 188 197 208 226 243 254 263 276 275 272 267 248 262 277 274 285 285 286 288 283
282 285 289 298 304 305 301 304 292 278 259 249 238 236 237 233 239 227 213 221 236 218 205 203 189 186 190 151 143 135 217 285 282 261 258 268 273 277 281 292 293 289 283
276 279 286 292 301 301 293 294 288 279 267 259 252 244 251 244 243 236 215 229 243 217 203 192 167 151 147 161 159 183 237 292 292 281 279 285 286 280 285 294 302 290 272
280 282 281 288 294 299 296 291 277 265 256 250 258 264 259 256 253 244 234 238 244 214 189 175 173 164 181 183 181 185 191 264 322 280 327 293 288 291 294 300 299 276 248
268 272 277 282 288 292 290 292 282 266 248 245 238 249 257 253 251 250 244 229 217 214 198 181 180 192 178 180 166 167 208 248 255 291 293 288 295 291 313 315 296 265 234
263 261 265 270 276 279 278 280 278 265 251 253 263 246 291 261 253 226 198 194 182 181 185 190 187 169 148 158 176 228 284 290 308 324 283 254 319 315 325 322 273 253 222
256 255 260 267 273 268 272 271 272 264 258 255 244 274 296 263 216 189 174 175 179 190 185 175 162 160 173 191 223 242 274 277 288 275 250 241 300 331 329 322 231 239 266
245 252 249 258 264 266 269 279 267 255 243 250 237 266 252 233 186 184 185 183 180 194 183 182 191 201 209 217 230 256 269 255 255 286 205 188 266 8 334 306 330 295 261